Time,TemperatureF,DewpointF,PressureIn,WindDirection,WindDirectionDegrees,WindSpeedMPH,WindSpeedGustMPH,Humidity,HourlyPrecipIn,Conditions,Clouds,dailyrainin,SoftwareType,DateUTC
2013-01-16 00:04:00,46.6,16.8,25.33,NE,43,6.0,-999.0,30,-99.99,,,-99.99,dwt +perl,2013-01-16 08:04:00,
2013-01-16 00:09:00,46.8,17.0,25.33,NE,51,5.0,-999.0,30,-99.99,,,-99.99,dwt +perl,2013-01-16 08:09:00,
2013-01-16 00:14:00,46.9,17.1,25.33,NE,53,5.0,-999.0,30,-99.99,,,-99.99,dwt +perl,2013-01-16 08:14:00,
2013-01-16 00:19:00,46.9,17.1,25.33,NE,47,5.0,-999.0,30,-99.99,,,-99.99,dwt +perl,2013-01-16 08:19:00,
2013-01-16 00:24:00,47.0,17.2,25.33,NE,43,6.0,-999.0,30,-99.99,,,-99.99,dwt +perl,2013-01-16 08:24:00,
2013-01-16 00:29:00,47.3,16.7,25.33,NE,44,6.0,-999.0,29,-99.99,,,-99.99,dwt +perl,2013-01-16 08:29:00,
2013-01-16 00:34:00,47.4,17.5,25.33,NE,43,5.0,-999.0,30,-99.99,,,-99.99,dwt +perl,2013-01-16 08:34:00,
2013-01-16 00:39:00,47.2,16.6,25.33,NE,51,5.0,-999.0,29,-99.99,,,-99.99,dwt +perl,2013-01-16 08:39:00,
2013-01-16 00:44:00,47.1,16.5,25.33,NE,48,5.0,-999.0,29,-99.99,,,-99.99,dwt +perl,2013-01-16 08:44:00,
2013-01-16 00:49:00,47.2,16.6,25.33,NE,48,5.0,-999.0,29,-99.99,,,-99.99,dwt +perl,2013-01-16 08:49:00,
2013-01-16 00:54:00,47.0,16.4,25.33,NE,48,4.0,-999.0,29,-99.99,,,-99.99,dwt +perl,2013-01-16 08:54:00,
2013-01-16 00:59:00,46.9,16.3,25.33,NE,47,5.0,-999.0,29,-99.99,,,-99.99,dwt +perl,2013-01-16 08:59:00,
2013-01-16 01:04:00,47.1,17.3,25.32,NE,48,4.0,-999.0,30,-99.99,,,-99.99,dwt +perl,2013-01-16 09:04:00,
2013-01-16 01:09:00,47.2,16.6,25.32,NE,48,5.0,-999.0,29,-99.99,,,-99.99,dwt +perl,2013-01-16 09:09:00,
2013-01-16 01:14:00,47.2,16.6,25.33,NE,47,4.0,-999.0,29,-99.99,,,-99.99,dwt +perl,2013-01-16 09:14:00,
2013-01-16 01:19:00,47.1,16.5,25.33,NE,49,4.0,-999.0,29,-99.99,,,-99.99,dwt +perl,2013-01-16 09:19:00,
2013-01-16 01:24:00,47.1,16.5,25.33,NE,50,5.0,-999.0,29,-99.99,,,-99.99,dwt +perl,2013-01-16 09:24:00,
2013-01-16 01:29:00,47.2,16.6,25.33,NE,51,5.0,-999.0,29,-99.99,,,-99.99,dwt +perl,2013-01-16 09:29:00,
2013-01-16 01:34:00,47.1,16.5,25.33,NE,53,5.0,-999.0,29,-99.99,,,-99.99,dwt +perl,2013-01-16 09:34:00,
2013-01-16 01:39:00,47.0,16.4,25.33,NE,54,4.0,-999.0,29,-99.99,,,-99.99,dwt +perl,2013-01-16 09:39:00,
2013-01-16 01:44:00,46.8,16.2,25.33,NE,54,5.0,-999.0,29,-99.99,,,-99.99,dwt +perl,2013-01-16 09:44:00,
2013-01-16 01:49:00,47.1,16.5,25.33,NE,54,5.0,-999.0,29,-99.99,,,-99.99,dwt +perl,2013-01-16 09:49:00,
2013-01-16 01:54:00,47.4,16.8,25.33,NE,54,4.0,-999.0,29,-99.99,,,-99.99,dwt +perl,2013-01-16 09:54:00,
2013-01-16 01:59:00,47.8,16.3,25.33,ENE,58,5.0,-999.0,28,-99.99,,,-99.99,dwt +perl,2013-01-16 09:59:00,
2013-01-16 02:04:00,49.4,17.7,25.33,ENE,63,7.0,-999.0,28,-99.99,,,-99.99,dwt +perl,2013-01-16 10:04:00,
2013-01-16 02:09:00,50.2,16.6,25.33,NE,56,4.0,-999.0,26,-99.99,,,-99.99,dwt +perl,2013-01-16 10:09:00,
2013-01-16 02:14:00,50.2,16.6,25.33,ENE,66,9.0,-999.0,26,-99.99,,,-99.99,dwt +perl,2013-01-16 10:14:00,
2013-01-16 02:19:00,50.6,17.0,25.33,ENE,63,8.0,-999.0,26,-99.99,,,-99.99,dwt +perl,2013-01-16 10:19:00,
2013-01-16 02:24:00,50.6,17.0,25.32,NE,56,8.0,-999.0,26,-99.99,,,-99.99,dwt +perl,2013-01-16 10:24:00,
2013-01-16 02:34:00,51.1,18.3,25.32,ENE,66,10.0,-999.0,27,-99.99,,,-99.99,dwt +perl,2013-01-16 10:34:00,
2013-01-16 02:39:00,51.3,19.3,25.32,ENE,62,9.0,-999.0,28,-99.99,,,-99.99,dwt +perl,2013-01-16 10:39:00,
2013-01-16 02:44:00,51.2,18.4,25.32,ENE,62,8.0,-999.0,27,-99.99,,,-99.99,dwt +perl,2013-01-16 10:44:00,
2013-01-16 02:49:00,51.1,18.3,25.32,NE,48,6.0,-999.0,27,-99.99,,,-99.99,dwt +perl,2013-01-16 10:49:00,
2013-01-16 02:54:00,51.0,18.2,25.32,ENE,66,10.0,-999.0,27,-99.99,,,-99.99,dwt +perl,2013-01-16 10:54:00,
2013-01-16 02:59:00,51.2,19.2,25.32,NE,44,7.0,-999.0,28,-99.99,,,-99.99,dwt +perl,2013-01-16 10:59:00,
2013-01-16 03:04:00,51.2,18.4,25.32,NE,56,9.0,-999.0,27,-99.99,,,-99.99,dwt +perl,2013-01-16 11:04:00,
2013-01-16 03:09:00,51.1,19.1,25.32,NE,51,8.0,-999.0,28,-99.99,,,-99.99,dwt +perl,2013-01-16 11:09:00,
2013-01-16 03:14:00,51.2,19.2,25.32,NE,43,7.0,-999.0,28,-99.99,,,-99.99,dwt +perl,2013-01-16 11:14:00,
2013-01-16 03:19:00,50.8,18.9,25.31,ENE,66,10.0,-999.0,28,-99.99,,,-99.99,dwt +perl,2013-01-16 11:19:00,
2013-01-16 03:24:00,50.8,18.9,25.31,ENE,60,8.0,-999.0,28,-99.99,,,-99.99,dwt +perl,2013-01-16 11:24:00,
2013-01-16 03:29:00,51.0,19.9,25.31,NE,48,8.0,-999.0,29,-99.99,,,-99.99,dwt +perl,2013-01-16 11:29:00,
2013-01-16 03:34:00,51.0,19.1,25.31,NE,50,6.0,-999.0,28,-99.99,,,-99.99,dwt +perl,2013-01-16 11:34:00,
2013-01-16 03:39:00,51.0,19.1,25.31,ENE,70,10.0,-999.0,28,-99.99,,,-99.99,dwt +perl,2013-01-16 11:39:00,
2013-01-16 03:44:00,51.0,19.1,25.31,NE,52,6.0,-999.0,28,-99.99,,,-99.99,dwt +perl,2013-01-16 11:44:00,
2013-01-16 03:49:00,51.0,19.1,25.31,ENE,66,10.0,-999.0,28,-99.99,,,-99.99,dwt +perl,2013-01-16 11:49:00,
2013-01-16 03:54:00,51.0,19.1,25.31,NE,50,8.0,-999.0,28,-99.99,,,-99.99,dwt +perl,2013-01-16 11:54:00,
2013-01-16 03:59:00,50.9,19.0,25.30,NE,39,9.0,-999.0,28,-99.99,,,-99.99,dwt +perl,2013-01-16 11:59:00,
2013-01-16 04:04:00,50.6,18.7,25.30,ENE,65,8.0,-999.0,28,-99.99,,,-99.99,dwt +perl,2013-01-16 12:04:00,
2013-01-16 04:09:00,50.4,18.5,25.30,NE,47,7.0,-999.0,28,-99.99,,,-99.99,dwt +perl,2013-01-16 12:09:00,
2013-01-16 04:14:00,50.3,18.5,25.30,NE,51,6.0,-999.0,28,-99.99,,,-99.99,dwt +perl,2013-01-16 12:14:00,
2013-01-16 04:19:00,50.1,18.3,25.30,NE,49,8.0,-999.0,28,-99.99,,,-99.99,dwt +perl,2013-01-16 12:19:00,
2013-01-16 04:24:00,50.2,19.2,25.30,NE,41,7.0,-999.0,29,-99.99,,,-99.99,dwt +perl,2013-01-16 12:24:00,
2013-01-16 04:29:00,50.0,19.0,25.30,NE,41,7.0,-999.0,29,-99.99,,,-99.99,dwt +perl,2013-01-16 12:29:00,
2013-01-16 04:34:00,50.1,18.3,25.30,NE,52,8.0,-999.0,28,-99.99,,,-99.99,dwt +perl,2013-01-16 12:34:00,
2013-01-16 04:39:00,49.9,18.1,25.29,NE,48,12.0,-999.0,28,-99.99,,,-99.99,dwt +perl,2013-01-16 12:39:00,
2013-01-16 04:44:00,50.0,18.2,25.29,NE,52,7.0,-999.0,28,-99.99,,,-99.99,dwt +perl,2013-01-16 12:44:00,
2013-01-16 04:49:00,49.7,18.8,25.29,NE,51,8.0,-999.0,29,-99.99,,,-99.99,dwt +perl,2013-01-16 12:49:00,
2013-01-16 04:54:00,49.4,17.7,25.29,NE,52,8.0,-999.0,28,-99.99,,,-99.99,dwt +perl,2013-01-16 12:54:00,
2013-01-16 04:59:00,49.2,17.5,25.29,NE,49,7.0,-999.0,28,-99.99,,,-99.99,dwt +perl,2013-01-16 12:59:00,
2013-01-16 05:04:00,48.8,17.2,25.29,NE,54,7.0,-999.0,28,-99.99,,,-99.99,dwt +perl,2013-01-16 13:04:00,
2013-01-16 05:09:00,48.2,16.6,25.29,NE,51,7.0,-999.0,28,-99.99,,,-99.99,dwt +perl,2013-01-16 13:09:00,
2013-01-16 05:14:00,48.2,17.5,25.29,NE,52,7.0,-999.0,29,-99.99,,,-99.99,dwt +perl,2013-01-16 13:14:00,
2013-01-16 05:19:00,48.1,16.5,25.28,NE,53,6.0,-999.0,28,-99.99,,,-99.99,dwt +perl,2013-01-16 13:19:00,
2013-01-16 05:24:00,47.6,16.1,25.28,ENE,63,9.0,-999.0,28,-99.99,,,-99.99,dwt +perl,2013-01-16 13:24:00,
2013-01-16 05:29:00,47.4,15.9,25.28,NE,52,5.0,-999.0,28,-99.99,,,-99.99,dwt +perl,2013-01-16 13:29:00,
2013-01-16 05:34:00,47.7,17.0,25.28,NE,50,5.0,-999.0,29,-99.99,,,-99.99,dwt +perl,2013-01-16 13:34:00,
2013-01-16 05:39:00,47.8,17.9,25.28,ENE,62,10.0,-999.0,30,-99.99,,,-99.99,dwt +perl,2013-01-16 13:39:00,
2013-01-16 05:44:00,48.3,19.1,25.28,ENE,62,9.0,-999.0,31,-99.99,,,-99.99,dwt +perl,2013-01-16 13:44:00,
2013-01-16 05:49:00,49.1,19.0,25.28,ENE,61,10.0,-999.0,30,-99.99,,,-99.99,dwt +perl,2013-01-16 13:49:00,
2013-01-16 05:54:00,49.8,19.6,25.28,ENE,62,10.0,-999.0,30,-99.99,,,-99.99,dwt +perl,2013-01-16 13:54:00,
2013-01-16 05:59:00,50.3,18.5,25.28,ENE,62,9.0,-999.0,28,-99.99,,,-99.99,dwt +perl,2013-01-16 13:59:00,
2013-01-16 06:04:00,50.3,18.5,25.28,ENE,64,10.0,-999.0,28,-99.99,,,-99.99,dwt +perl,2013-01-16 14:04:00,
2013-01-16 06:09:00,50.1,18.3,25.28,NE,50,8.0,-999.0,28,-99.99,,,-99.99,dwt +perl,2013-01-16 14:09:00,
2013-01-16 06:14:00,49.9,18.9,25.28,ENE,67,8.0,-999.0,29,-99.99,,,-99.99,dwt +perl,2013-01-16 14:14:00,
2013-01-16 06:19:00,49.9,18.1,25.28,ENE,59,7.0,-999.0,28,-99.99,,,-99.99,dwt +perl,2013-01-16 14:19:00,
2013-01-16 06:24:00,49.8,18.0,25.28,ENE,77,8.0,-999.0,28,-99.99,,,-99.99,dwt +perl,2013-01-16 14:24:00,
2013-01-16 06:29:00,49.8,18.0,25.28,ENE,62,5.0,-999.0,28,-99.99,,,-99.99,dwt +perl,2013-01-16 14:29:00,
2013-01-16 06:34:00,49.6,17.9,25.28,ENE,63,7.0,-999.0,28,-99.99,,,-99.99,dwt +perl,2013-01-16 14:34:00,
2013-01-16 06:39:00,49.6,17.9,25.28,ENE,64,9.0,-999.0,28,-99.99,,,-99.99,dwt +perl,2013-01-16 14:39:00,
2013-01-16 06:44:00,49.8,18.0,25.28,ENE,61,10.0,-999.0,28,-99.99,,,-99.99,dwt +perl,2013-01-16 14:44:00,
2013-01-16 06:49:00,49.9,18.1,25.28,ENE,62,10.0,-999.0,28,-99.99,,,-99.99,dwt +perl,2013-01-16 14:49:00,
2013-01-16 06:54:00,50.1,17.4,25.28,ENE,65,10.0,-999.0,27,-99.99,,,-99.99,dwt +perl,2013-01-16 14:54:00,
2013-01-16 06:59:00,50.2,18.4,25.28,ENE,65,10.0,-999.0,28,-99.99,,,-99.99,dwt +perl,2013-01-16 14:59:00,
2013-01-16 07:04:00,50.4,17.7,25.28,ENE,61,12.0,-999.0,27,-99.99,,,-99.99,dwt +perl,2013-01-16 15:04:00,
2013-01-16 07:09:00,50.6,17.9,25.28,NE,45,6.0,-999.0,27,-99.99,,,-99.99,dwt +perl,2013-01-16 15:09:00,
2013-01-16 07:14:00,50.6,17.9,25.28,ENE,58,7.0,-999.0,27,-99.99,,,-99.99,dwt +perl,2013-01-16 15:14:00,
2013-01-16 07:19:00,50.4,17.7,25.28,NE,56,4.0,-999.0,27,-99.99,,,-99.99,dwt +perl,2013-01-16 15:19:00,
2013-01-16 07:24:00,50.3,17.6,25.28,NE,51,5.0,-999.0,27,-99.99,,,-99.99,dwt +perl,2013-01-16 15:24:00,
2013-01-16 07:29:00,50.5,17.8,25.28,ENE,58,10.0,-999.0,27,-99.99,,,-99.99,dwt +perl,2013-01-16 15:29:00,
2013-01-16 07:34:00,50.8,17.2,25.28,ENE,60,7.0,-999.0,26,-99.99,,,-99.99,dwt +perl,2013-01-16 15:34:00,
2013-01-16 07:39:00,51.1,17.4,25.28,ENE,61,8.0,-999.0,26,-99.99,,,-99.99,dwt +perl,2013-01-16 15:39:00,
2013-01-16 07:44:00,51.5,17.8,25.28,ENE,57,7.0,-999.0,26,-99.99,,,-99.99,dwt +perl,2013-01-16 15:44:00,
2013-01-16 07:49:00,51.7,17.9,25.28,NE,52,6.0,-999.0,26,-99.99,,,-99.99,dwt +perl,2013-01-16 15:49:00,
2013-01-16 07:54:00,52.2,17.5,25.28,NE,55,7.0,-999.0,25,-99.99,,,-99.99,dwt +perl,2013-01-16 15:54:00,
2013-01-16 07:59:00,52.4,17.6,25.28,NE,55,6.0,-999.0,25,-99.99,,,-99.99,dwt +perl,2013-01-16 15:59:00,
2013-01-16 08:04:00,52.6,17.8,25.28,NE,56,10.0,-999.0,25,-99.99,,,-99.99,dwt +perl,2013-01-16 16:04:00,
2013-01-16 08:09:00,52.9,18.0,25.28,ENE,62,9.0,-999.0,25,-99.99,,,-99.99,dwt +perl,2013-01-16 16:09:00,
2013-01-16 08:14:00,53.0,18.1,25.29,ENE,72,5.0,-999.0,25,-99.99,,,-99.99,dwt +perl,2013-01-16 16:14:00,
2013-01-16 08:19:00,53.2,19.2,25.29,ENE,70,4.0,-999.0,26,-99.99,,,-99.99,dwt +perl,2013-01-16 16:19:00,
2013-01-16 08:24:00,53.5,18.6,25.29,ENE,59,4.0,-999.0,25,-99.99,,,-99.99,dwt +perl,2013-01-16 16:24:00,
2013-01-16 08:29:00,53.8,18.8,25.29,NE,51,4.0,-999.0,25,-99.99,,,-99.99,dwt +perl,2013-01-16 16:29:00,
2013-01-16 08:34:00,54.1,19.1,25.29,NE,44,3.0,-999.0,25,-99.99,,,-99.99,dwt +perl,2013-01-16 16:34:00,
2013-01-16 08:39:00,54.6,18.5,25.29,ENE,57,3.0,-999.0,24,-99.99,,,-99.99,dwt +perl,2013-01-16 16:39:00,
2013-01-16 08:44:00,54.8,18.7,25.29,NE,37,5.0,-999.0,24,-99.99,,,-99.99,dwt +perl,2013-01-16 16:44:00,
2013-01-16 08:49:00,54.9,19.8,25.29,ENE,65,4.0,-999.0,25,-99.99,,,-99.99,dwt +perl,2013-01-16 16:49:00,
2013-01-16 08:54:00,55.0,19.8,25.29,NE,41,4.0,-999.0,25,-99.99,,,-99.99,dwt +perl,2013-01-16 16:54:00,
2013-01-16 08:59:00,55.1,19.9,25.29,ENE,65,4.0,-999.0,25,-99.99,,,-99.99,dwt +perl,2013-01-16 16:59:00,
2013-01-16 09:04:00,55.3,20.1,25.29,NE,45,3.0,-999.0,25,-99.99,,,-99.99,dwt +perl,2013-01-16 17:04:00,
2013-01-16 09:09:00,55.4,19.2,25.29,NE,54,2.0,-999.0,24,-99.99,,,-99.99,dwt +perl,2013-01-16 17:09:00,
2013-01-16 09:14:00,55.5,19.3,25.29,NE,44,3.0,-999.0,24,-99.99,,,-99.99,dwt +perl,2013-01-16 17:14:00,
2013-01-16 09:19:00,55.7,19.5,25.29,NE,51,4.0,-999.0,24,-99.99,,,-99.99,dwt +perl,2013-01-16 17:19:00,
2013-01-16 09:24:00,55.9,20.6,25.29,NE,48,3.0,-999.0,25,-99.99,,,-99.99,dwt +perl,2013-01-16 17:24:00,
2013-01-16 09:29:00,56.1,20.8,25.29,NE,46,3.0,-999.0,25,-99.99,,,-99.99,dwt +perl,2013-01-16 17:29:00,
2013-01-16 09:34:00,56.3,20.0,25.29,NE,49,2.0,-999.0,24,-99.99,,,-99.99,dwt +perl,2013-01-16 17:34:00,
2013-01-16 09:39:00,56.5,19.2,25.30,NE,54,3.0,-999.0,23,-99.99,,,-99.99,dwt +perl,2013-01-16 17:39:00,
2013-01-16 09:44:00,56.6,19.2,25.30,NE,47,2.0,-999.0,23,-99.99,,,-99.99,dwt +perl,2013-01-16 17:44:00,
2013-01-16 09:49:00,56.6,19.2,25.30,NE,48,4.0,-999.0,23,-99.99,,,-99.99,dwt +perl,2013-01-16 17:49:00,
2013-01-16 09:54:00,57.0,19.6,25.30,NE,52,1.0,-999.0,23,-99.99,,,-99.99,dwt +perl,2013-01-16 17:54:00,
2013-01-16 09:59:00,57.3,20.8,25.29,NE,52,3.0,-999.0,24,-99.99,,,-99.99,dwt +perl,2013-01-16 17:59:00,
2013-01-16 10:04:00,57.6,20.1,25.29,NE,51,0.0,-999.0,23,-99.99,,,-99.99,dwt +perl,2013-01-16 18:04:00,
2013-01-16 10:09:00,57.6,19.0,25.29,ENE,70,3.0,-999.0,22,-99.99,,,-99.99,dwt +perl,2013-01-16 18:09:00,
2013-01-16 10:14:00,57.4,19.9,25.29,NE,50,3.0,-999.0,23,-99.99,,,-99.99,dwt +perl,2013-01-16 18:14:00,
2013-01-16 10:19:00,57.6,20.1,25.29,ENE,58,2.0,-999.0,23,-99.99,,,-99.99,dwt +perl,2013-01-16 18:19:00,
2013-01-16 10:24:00,58.1,21.5,25.29,NE,55,1.0,-999.0,24,-99.99,,,-99.99,dwt +perl,2013-01-16 18:24:00,
2013-01-16 10:29:00,58.6,20.9,25.29,NE,56,1.0,-999.0,23,-99.99,,,-99.99,dwt +perl,2013-01-16 18:29:00,
2013-01-16 10:34:00,58.8,21.1,25.29,NE,55,1.0,-999.0,23,-99.99,,,-99.99,dwt +perl,2013-01-16 18:34:00,
2013-01-16 10:44:00,58.7,21.0,25.28,NE,54,1.0,-999.0,23,-99.99,,,-99.99,dwt +perl,2013-01-16 18:44:00,
2013-01-16 10:49:00,58.7,21.0,25.28,NE,54,1.0,-999.0,23,-99.99,,,-99.99,dwt +perl,2013-01-16 18:49:00,
2013-01-16 10:54:00,58.6,20.9,25.28,NE,54,1.0,-999.0,23,-99.99,,,-99.99,dwt +perl,2013-01-16 18:54:00,
2013-01-16 10:59:00,59.0,20.2,25.28,NE,54,1.0,-999.0,22,-99.99,,,-99.99,dwt +perl,2013-01-16 18:59:00,
2013-01-16 11:04:00,59.2,21.4,25.27,NE,54,1.0,-999.0,23,-99.99,,,-99.99,dwt +perl,2013-01-16 19:04:00,
2013-01-16 11:09:00,59.6,22.8,25.27,NE,54,2.0,-999.0,24,-99.99,,,-99.99,dwt +perl,2013-01-16 19:09:00,
2013-01-16 11:14:00,59.5,23.7,25.27,NE,54,2.0,-999.0,25,-99.99,,,-99.99,dwt +perl,2013-01-16 19:14:00,
2013-01-16 11:19:00,59.5,20.6,25.27,NE,54,2.0,-999.0,22,-99.99,,,-99.99,dwt +perl,2013-01-16 19:19:00,
2013-01-16 11:24:00,58.9,21.2,25.26,NE,54,1.0,-999.0,23,-99.99,,,-99.99,dwt +perl,2013-01-16 19:24:00,
2013-01-16 11:29:00,58.9,22.2,25.26,NE,54,1.0,-999.0,24,-99.99,,,-99.99,dwt +perl,2013-01-16 19:29:00,
2013-01-16 11:34:00,58.9,21.2,25.26,NE,54,0.0,-999.0,23,-99.99,,,-99.99,dwt +perl,2013-01-16 19:34:00,
2013-01-16 11:39:00,58.9,21.2,25.26,NE,54,0.0,-999.0,23,-99.99,,,-99.99,dwt +perl,2013-01-16 19:39:00,
2013-01-16 11:44:00,59.1,22.4,25.26,NE,54,1.0,-999.0,24,-99.99,,,-99.99,dwt +perl,2013-01-16 19:44:00,
2013-01-16 11:49:00,59.3,22.5,25.25,NE,54,0.0,-999.0,24,-99.99,,,-99.99,dwt +perl,2013-01-16 19:49:00,
2013-01-16 11:54:00,59.4,23.6,25.25,NE,54,1.0,-999.0,25,-99.99,,,-99.99,dwt +perl,2013-01-16 19:54:00,
2013-01-16 11:59:00,59.6,23.7,25.25,NE,54,0.0,-999.0,25,-99.99,,,-99.99,dwt +perl,2013-01-16 19:59:00,
2013-01-16 12:04:00,59.7,24.8,25.25,NE,54,2.0,-999.0,26,-99.99,,,-99.99,dwt +perl,2013-01-16 20:04:00,
2013-01-16 12:09:00,59.6,24.7,25.24,NE,54,0.0,-999.0,26,-99.99,,,-99.99,dwt +perl,2013-01-16 20:09:00,
2013-01-16 12:14:00,59.5,24.6,25.24,NE,54,0.0,-999.0,26,-99.99,,,-99.99,dwt +perl,2013-01-16 20:14:00,
2013-01-16 12:19:00,59.7,24.8,25.23,NE,54,0.0,-999.0,26,-99.99,,,-99.99,dwt +perl,2013-01-16 20:19:00,
2013-01-16 12:24:00,59.5,25.5,25.23,NE,54,0.0,-999.0,27,-99.99,,,-99.99,dwt +perl,2013-01-16 20:24:00,
2013-01-16 12:29:00,59.2,27.0,25.23,NE,54,1.0,-999.0,29,-99.99,,,-99.99,dwt +perl,2013-01-16 20:29:00,
2013-01-16 12:34:00,59.0,26.8,25.22,NE,54,1.0,-999.0,29,-99.99,,,-99.99,dwt +perl,2013-01-16 20:34:00,
2013-01-16 12:39:00,58.9,26.7,25.22,NE,54,2.0,-999.0,29,-99.99,,,-99.99,dwt +perl,2013-01-16 20:39:00,
2013-01-16 12:44:00,58.5,26.4,25.22,NE,54,1.0,-999.0,29,-99.99,,,-99.99,dwt +perl,2013-01-16 20:44:00,
2013-01-16 12:49:00,58.6,26.4,25.22,NE,54,1.0,-999.0,29,-99.99,,,-99.99,dwt +perl,2013-01-16 20:49:00,
2013-01-16 12:54:00,58.9,25.9,25.21,NE,54,1.0,-999.0,28,-99.99,,,-99.99,dwt +perl,2013-01-16 20:54:00,
2013-01-16 12:59:00,58.7,25.7,25.21,NE,54,0.0,-999.0,28,-99.99,,,-99.99,dwt +perl,2013-01-16 20:59:00,
2013-01-16 13:04:00,58.8,22.1,25.21,NE,54,1.0,-999.0,24,-99.99,,,-99.99,dwt +perl,2013-01-16 21:04:00,
2013-01-16 13:09:00,58.6,22.9,25.21,NE,54,0.0,-999.0,25,-99.99,,,-99.99,dwt +perl,2013-01-16 21:09:00,
2013-01-16 13:14:00,58.2,21.6,25.21,NE,54,0.0,-999.0,24,-99.99,,,-99.99,dwt +perl,2013-01-16 21:14:00,
2013-01-16 13:19:00,58.1,19.5,25.21,NE,54,0.0,-999.0,22,-99.99,,,-99.99,dwt +perl,2013-01-16 21:19:00,
2013-01-16 13:24:00,57.8,19.2,25.20,NE,54,0.0,-999.0,22,-99.99,,,-99.99,dwt +perl,2013-01-16 21:24:00,
2013-01-16 13:29:00,57.9,17.1,25.20,NE,54,1.0,-999.0,20,-99.99,,,-99.99,dwt +perl,2013-01-16 21:29:00,
2013-01-16 13:34:00,58.1,18.4,25.20,NE,54,1.0,-999.0,21,-99.99,,,-99.99,dwt +perl,2013-01-16 21:34:00,
2013-01-16 13:39:00,58.2,18.5,25.20,NE,54,1.0,-999.0,21,-99.99,,,-99.99,dwt +perl,2013-01-16 21:39:00,
2013-01-16 13:44:00,58.0,25.1,25.20,NE,54,0.0,-999.0,28,-99.99,,,-99.99,dwt +perl,2013-01-16 21:44:00,
2013-01-16 13:49:00,57.6,26.4,25.20,NE,54,0.0,-999.0,30,-99.99,,,-99.99,dwt +perl,2013-01-16 21:49:00,
2013-01-16 13:54:00,57.2,27.6,25.20,NE,54,1.0,-999.0,32,-99.99,,,-99.99,dwt +perl,2013-01-16 21:54:00,
2013-01-16 13:59:00,56.7,27.2,25.20,NE,54,0.0,-999.0,32,-99.99,,,-99.99,dwt +perl,2013-01-16 21:59:00,
2013-01-16 14:04:00,55.9,24.9,25.20,NE,54,1.0,-999.0,30,-99.99,,,-99.99,dwt +perl,2013-01-16 22:04:00,
2013-01-16 14:09:00,55.7,22.2,25.20,NE,54,1.0,-999.0,27,-99.99,,,-99.99,dwt +perl,2013-01-16 22:09:00,
2013-01-16 14:14:00,55.5,20.3,25.20,NE,54,2.0,-999.0,25,-99.99,,,-99.99,dwt +perl,2013-01-16 22:14:00,
2013-01-16 14:19:00,55.3,19.1,25.19,NE,54,0.0,-999.0,24,-99.99,,,-99.99,dwt +perl,2013-01-16 22:19:00,
2013-01-16 14:24:00,55.4,21.1,25.19,NE,54,2.0,-999.0,26,-99.99,,,-99.99,dwt +perl,2013-01-16 22:24:00,
2013-01-16 14:29:00,55.4,26.8,25.19,NE,54,1.0,-999.0,33,-99.99,,,-99.99,dwt +perl,2013-01-16 22:29:00,
2013-01-16 14:34:00,55.1,26.5,25.19,NE,54,2.0,-999.0,33,-99.99,,,-99.99,dwt +perl,2013-01-16 22:34:00,
2013-01-16 14:39:00,54.7,24.7,25.19,NE,54,1.0,-999.0,31,-99.99,,,-99.99,dwt +perl,2013-01-16 22:39:00,
2013-01-16 14:44:00,54.4,22.0,25.19,NE,54,2.0,-999.0,28,-99.99,,,-99.99,dwt +perl,2013-01-16 22:44:00,
2013-01-16 14:49:00,54.4,21.1,25.19,NE,54,2.0,-999.0,27,-99.99,,,-99.99,dwt +perl,2013-01-16 22:49:00,
2013-01-16 14:54:00,54.4,20.2,25.19,NE,55,2.0,-999.0,26,-99.99,,,-99.99,dwt +perl,2013-01-16 22:54:00,
2013-01-16 14:59:00,54.5,24.5,25.19,NE,55,2.0,-999.0,31,-99.99,,,-99.99,dwt +perl,2013-01-16 22:59:00,
2013-01-16 15:04:00,54.5,23.7,25.19,NE,56,2.0,-999.0,30,-99.99,,,-99.99,dwt +perl,2013-01-16 23:04:00,
2013-01-16 15:09:00,54.6,23.0,25.19,NE,56,1.0,-999.0,29,-99.99,,,-99.99,dwt +perl,2013-01-16 23:09:00,
2013-01-16 15:14:00,55.0,25.7,25.19,NE,56,0.0,-999.0,32,-99.99,,,-99.99,dwt +perl,2013-01-16 23:14:00,
2013-01-16 15:19:00,55.6,24.7,25.19,NE,56,1.0,-999.0,30,-99.99,,,-99.99,dwt +perl,2013-01-16 23:19:00,
2013-01-16 15:24:00,55.1,25.0,25.19,NE,56,3.0,-999.0,31,-99.99,,,-99.99,dwt +perl,2013-01-16 23:24:00,
2013-01-16 15:29:00,53.7,24.5,25.19,NE,56,2.0,-999.0,32,-99.99,,,-99.99,dwt +perl,2013-01-16 23:29:00,
2013-01-16 15:34:00,52.7,24.4,25.19,NE,56,3.0,-999.0,33,-99.99,,,-99.99,dwt +perl,2013-01-16 23:34:00,
2013-01-16 15:39:00,52.1,22.4,25.19,ENE,57,2.0,-999.0,31,-99.99,,,-99.99,dwt +perl,2013-01-16 23:39:00,
2013-01-16 15:44:00,52.1,20.8,25.19,ENE,57,1.0,-999.0,29,-99.99,,,-99.99,dwt +perl,2013-01-16 23:44:00,
2013-01-16 15:49:00,52.3,22.6,25.19,ENE,58,2.0,-999.0,31,-99.99,,,-99.99,dwt +perl,2013-01-16 23:49:00,
2013-01-16 15:54:00,52.3,21.0,25.19,ENE,59,3.0,-999.0,29,-99.99,,,-99.99,dwt +perl,2013-01-16 23:54:00,
2013-01-16 15:59:00,52.6,19.6,25.19,East,82,2.0,-999.0,27,-99.99,,,-99.99,dwt +perl,2013-01-16 23:59:00,
2013-01-16 16:04:00,52.8,18.9,25.19,East,99,5.0,-999.0,26,-99.99,,,-99.99,dwt +perl,2013-01-17 00:04:00,
2013-01-16 16:09:00,53.5,17.6,25.19,East,91,5.0,-999.0,24,-99.99,,,-99.99,dwt +perl,2013-01-17 00:09:00,
2013-01-16 16:14:00,54.0,19.9,25.18,East,97,6.0,-999.0,26,-99.99,,,-99.99,dwt +perl,2013-01-17 00:14:00,
2013-01-16 16:19:00,53.8,20.6,25.18,East,99,7.0,-999.0,27,-99.99,,,-99.99,dwt +perl,2013-01-17 00:19:00,
2013-01-16 16:24:00,53.6,19.6,25.18,ESE,105,7.0,-999.0,26,-99.99,,,-99.99,dwt +perl,2013-01-17 00:24:00,
2013-01-16 16:29:00,53.5,21.2,25.18,East,97,6.0,-999.0,28,-99.99,,,-99.99,dwt +perl,2013-01-17 00:29:00,
2013-01-16 16:34:00,53.2,21.0,25.18,ENE,69,4.0,-999.0,28,-99.99,,,-99.99,dwt +perl,2013-01-17 00:34:00,
2013-01-16 16:39:00,53.1,20.0,25.18,ESE,104,9.0,-999.0,27,-99.99,,,-99.99,dwt +perl,2013-01-17 00:39:00,
2013-01-16 16:44:00,53.1,19.1,25.18,ESE,102,5.0,-999.0,26,-99.99,,,-99.99,dwt +perl,2013-01-17 00:44:00,
2013-01-16 16:49:00,53.0,18.1,25.19,ESE,114,7.0,-999.0,25,-99.99,,,-99.99,dwt +perl,2013-01-17 00:49:00,
2013-01-16 16:54:00,52.8,20.6,25.19,ESE,106,7.0,-999.0,28,-99.99,,,-99.99,dwt +perl,2013-01-17 00:54:00,
2013-01-16 16:59:00,52.4,20.3,25.19,ESE,110,5.0,-999.0,28,-99.99,,,-99.99,dwt +perl,2013-01-17 00:59:00,
2013-01-16 17:04:00,52.1,19.1,25.19,East,99,8.0,-999.0,27,-99.99,,,-99.99,dwt +perl,2013-01-17 01:04:00,
2013-01-16 17:09:00,51.9,19.8,25.19,East,99,9.0,-999.0,28,-99.99,,,-99.99,dwt +perl,2013-01-17 01:09:00,
2013-01-16 17:14:00,51.6,18.7,25.19,ESE,104,5.0,-999.0,27,-99.99,,,-99.99,dwt +perl,2013-01-17 01:14:00,
2013-01-16 17:19:00,51.2,18.4,25.19,ESE,120,7.0,-999.0,27,-99.99,,,-99.99,dwt +perl,2013-01-17 01:19:00,
2013-01-16 17:24:00,51.1,17.4,25.18,ESE,122,10.0,-999.0,26,-99.99,,,-99.99,dwt +perl,2013-01-17 01:24:00,
2013-01-16 17:29:00,51.2,17.5,25.18,ESE,117,8.0,-999.0,26,-99.99,,,-99.99,dwt +perl,2013-01-17 01:29:00,
2013-01-16 17:34:00,50.9,18.1,25.18,ESE,102,5.0,-999.0,27,-99.99,,,-99.99,dwt +perl,2013-01-17 01:34:00,
2013-01-16 17:39:00,50.7,18.8,25.18,ESE,122,5.0,-999.0,28,-99.99,,,-99.99,dwt +perl,2013-01-17 01:39:00,
2013-01-16 17:44:00,50.7,19.6,25.18,ESE,114,8.0,-999.0,29,-99.99,,,-99.99,dwt +perl,2013-01-17 01:44:00,
2013-01-16 17:49:00,50.7,19.6,25.18,ESE,102,7.0,-999.0,29,-99.99,,,-99.99,dwt +perl,2013-01-17 01:49:00,
2013-01-16 17:54:00,50.3,18.5,25.19,East,91,8.0,-999.0,28,-99.99,,,-99.99,dwt +perl,2013-01-17 01:54:00,
2013-01-16 17:59:00,50.1,19.1,25.19,ESE,114,5.0,-999.0,29,-99.99,,,-99.99,dwt +perl,2013-01-17 01:59:00,
2013-01-16 18:04:00,50.3,19.3,25.19,ESE,113,8.0,-999.0,29,-99.99,,,-99.99,dwt +perl,2013-01-17 02:04:00,
2013-01-16 18:09:00,50.6,19.5,25.19,ESE,110,9.0,-999.0,29,-99.99,,,-99.99,dwt +perl,2013-01-17 02:09:00,
2013-01-16 18:14:00,50.8,19.7,25.19,ESE,108,5.0,-999.0,29,-99.99,,,-99.99,dwt +perl,2013-01-17 02:14:00,
2013-01-16 18:19:00,51.1,19.1,25.18,ESE,106,7.0,-999.0,28,-99.99,,,-99.99,dwt +perl,2013-01-17 02:19:00,
2013-01-16 18:24:00,51.5,18.6,25.18,ESE,110,8.0,-999.0,27,-99.99,,,-99.99,dwt +perl,2013-01-17 02:24:00,
2013-01-16 18:29:00,51.8,18.9,25.18,ESE,116,9.0,-999.0,27,-99.99,,,-99.99,dwt +perl,2013-01-17 02:29:00,
2013-01-16 18:34:00,52.2,18.4,25.18,ESE,104,8.0,-999.0,26,-99.99,,,-99.99,dwt +perl,2013-01-17 02:34:00,
2013-01-16 18:39:00,52.3,17.5,25.18,ESE,108,8.0,-999.0,25,-99.99,,,-99.99,dwt +perl,2013-01-17 02:39:00,
2013-01-16 18:44:00,52.5,17.7,25.18,ESE,108,5.0,-999.0,25,-99.99,,,-99.99,dwt +perl,2013-01-17 02:44:00,
2013-01-16 18:49:00,53.2,17.4,25.18,ENE,74,2.0,-999.0,24,-99.99,,,-99.99,dwt +perl,2013-01-17 02:49:00,
2013-01-16 18:54:00,53.5,18.6,25.18,ESE,113,4.0,-999.0,25,-99.99,,,-99.99,dwt +perl,2013-01-17 02:54:00,
2013-01-16 18:59:00,54.3,18.3,25.18,ESE,122,8.0,-999.0,24,-99.99,,,-99.99,dwt +perl,2013-01-17 02:59:00,
2013-01-16 19:04:00,55.1,18.0,25.18,SE,133,5.0,-999.0,23,-99.99,,,-99.99,dwt +perl,2013-01-17 03:04:00,
2013-01-16 19:09:00,55.3,19.1,25.18,SE,133,3.0,-999.0,24,-99.99,,,-99.99,dwt +perl,2013-01-17 03:09:00,
2013-01-16 19:14:00,55.3,18.1,25.18,SE,127,6.0,-999.0,23,-99.99,,,-99.99,dwt +perl,2013-01-17 03:14:00,
2013-01-16 19:19:00,55.5,18.3,25.18,SE,137,6.0,-999.0,23,-99.99,,,-99.99,dwt +perl,2013-01-17 03:19:00,
2013-01-16 19:24:00,55.8,18.6,25.18,SE,146,1.0,-999.0,23,-99.99,,,-99.99,dwt +perl,2013-01-17 03:24:00,
2013-01-16 19:29:00,55.7,17.5,25.18,SE,146,4.0,-999.0,22,-99.99,,,-99.99,dwt +perl,2013-01-17 03:29:00,
2013-01-16 19:34:00,55.6,17.4,25.18,South,176,6.0,-999.0,22,-99.99,,,-99.99,dwt +perl,2013-01-17 03:34:00,
2013-01-16 19:39:00,55.5,17.3,25.18,South,170,4.0,-999.0,22,-99.99,,,-99.99,dwt +perl,2013-01-17 03:39:00,
2013-01-16 19:44:00,55.8,17.5,25.18,SSW,196,5.0,-999.0,22,-99.99,,,-99.99,dwt +perl,2013-01-17 03:44:00,
2013-01-16 19:49:00,55.9,16.5,25.18,SE,146,5.0,-999.0,21,-99.99,,,-99.99,dwt +perl,2013-01-17 03:49:00,
2013-01-16 19:54:00,55.9,16.5,25.18,South,187,4.0,-999.0,21,-99.99,,,-99.99,dwt +perl,2013-01-17 03:54:00,
2013-01-16 19:59:00,56.3,16.9,25.18,SSE,166,6.0,-999.0,21,-99.99,,,-99.99,dwt +perl,2013-01-17 03:59:00,
2013-01-16 20:04:00,56.5,15.9,25.18,SSE,157,6.0,-999.0,20,-99.99,,,-99.99,dwt +perl,2013-01-17 04:04:00,
2013-01-16 20:09:00,56.6,16.0,25.18,South,170,6.0,-999.0,20,-99.99,,,-99.99,dwt +perl,2013-01-17 04:09:00,
2013-01-16 20:14:00,56.7,16.1,25.18,South,181,9.0,-999.0,20,-99.99,,,-99.99,dwt +perl,2013-01-17 04:14:00,
2013-01-16 20:19:00,56.8,15.0,25.18,South,182,8.0,-999.0,19,-99.99,,,-99.99,dwt +perl,2013-01-17 04:19:00,
2013-01-16 20:24:00,56.8,15.0,25.18,South,183,8.0,-999.0,19,-99.99,,,-99.99,dwt +perl,2013-01-17 04:24:00,
2013-01-16 20:29:00,56.8,15.0,25.18,South,182,9.0,-999.0,19,-99.99,,,-99.99,dwt +perl,2013-01-17 04:29:00,
2013-01-16 20:34:00,56.9,15.1,25.18,South,179,5.0,-999.0,19,-99.99,,,-99.99,dwt +perl,2013-01-17 04:34:00,
2013-01-16 20:39:00,56.9,15.1,25.18,South,182,9.0,-999.0,19,-99.99,,,-99.99,dwt +perl,2013-01-17 04:39:00,
2013-01-16 20:44:00,57.0,15.2,25.17,South,186,8.0,-999.0,19,-99.99,,,-99.99,dwt +perl,2013-01-17 04:44:00,
2013-01-16 20:49:00,57.1,15.2,25.17,SW,216,6.0,-999.0,19,-99.99,,,-99.99,dwt +perl,2013-01-17 04:49:00,
2013-01-16 20:54:00,57.0,15.2,25.17,SSW,197,8.0,-999.0,19,-99.99,,,-99.99,dwt +perl,2013-01-17 04:54:00,
2013-01-16 20:59:00,57.2,15.3,25.17,South,185,7.0,-999.0,19,-99.99,,,-99.99,dwt +perl,2013-01-17 04:59:00,
2013-01-16 21:04:00,57.3,15.4,25.17,South,180,6.0,-999.0,19,-99.99,,,-99.99,dwt +perl,2013-01-17 05:04:00,
2013-01-16 21:14:00,57.4,15.5,25.17,SSW,193,5.0,-999.0,19,-99.99,,,-99.99,dwt +perl,2013-01-17 05:14:00,
2013-01-16 21:19:00,57.6,15.7,25.17,SSE,156,5.0,-999.0,19,-99.99,,,-99.99,dwt +perl,2013-01-17 05:19:00,
2013-01-16 21:24:00,57.5,15.6,25.17,South,172,7.0,-999.0,19,-99.99,,,-99.99,dwt +perl,2013-01-17 05:24:00,
2013-01-16 21:29:00,57.4,15.5,25.17,SSE,155,3.0,-999.0,19,-99.99,,,-99.99,dwt +perl,2013-01-17 05:29:00,
2013-01-16 21:34:00,57.2,15.3,25.17,SE,140,5.0,-999.0,19,-99.99,,,-99.99,dwt +perl,2013-01-17 05:34:00,
2013-01-16 21:39:00,57.3,15.4,25.17,South,177,6.0,-999.0,19,-99.99,,,-99.99,dwt +perl,2013-01-17 05:39:00,
2013-01-16 21:44:00,57.5,15.6,25.17,South,177,6.0,-999.0,19,-99.99,,,-99.99,dwt +perl,2013-01-17 05:44:00,
2013-01-16 21:49:00,57.5,15.6,25.17,South,181,5.0,-999.0,19,-99.99,,,-99.99,dwt +perl,2013-01-17 05:49:00,
2013-01-16 21:54:00,57.5,15.6,25.17,SE,143,5.0,-999.0,19,-99.99,,,-99.99,dwt +perl,2013-01-17 05:54:00,
2013-01-16 21:59:00,57.5,15.6,25.17,SE,145,3.0,-999.0,19,-99.99,,,-99.99,dwt +perl,2013-01-17 05:59:00,
2013-01-16 22:04:00,57.5,15.6,25.17,South,174,6.0,-999.0,19,-99.99,,,-99.99,dwt +perl,2013-01-17 06:04:00,
2013-01-16 22:09:00,57.6,15.7,25.17,SE,138,3.0,-999.0,19,-99.99,,,-99.99,dwt +perl,2013-01-17 06:09:00,
2013-01-16 22:14:00,57.5,15.6,25.17,SE,145,2.0,-999.0,19,-99.99,,,-99.99,dwt +perl,2013-01-17 06:14:00,
2013-01-16 22:19:00,57.4,15.5,25.17,SE,136,1.0,-999.0,19,-99.99,,,-99.99,dwt +perl,2013-01-17 06:19:00,
2013-01-16 22:24:00,57.3,15.4,25.17,SSE,160,5.0,-999.0,19,-99.99,,,-99.99,dwt +perl,2013-01-17 06:24:00,
2013-01-16 22:29:00,57.4,15.5,25.17,South,177,5.0,-999.0,19,-99.99,,,-99.99,dwt +perl,2013-01-17 06:29:00,
2013-01-16 22:34:00,57.7,14.5,25.17,SSE,167,5.0,-999.0,18,-99.99,,,-99.99,dwt +perl,2013-01-17 06:34:00,
2013-01-16 22:39:00,57.8,14.6,25.17,South,171,4.0,-999.0,18,-99.99,,,-99.99,dwt +perl,2013-01-17 06:39:00,
2013-01-16 22:44:00,57.8,14.6,25.17,South,186,5.0,-999.0,18,-99.99,,,-99.99,dwt +perl,2013-01-17 06:44:00,
2013-01-16 22:49:00,57.8,14.6,25.17,South,188,6.0,-999.0,18,-99.99,,,-99.99,dwt +perl,2013-01-17 06:49:00,
2013-01-16 22:54:00,57.8,14.6,25.17,South,186,6.0,-999.0,18,-99.99,,,-99.99,dwt +perl,2013-01-17 06:54:00,
2013-01-16 22:59:00,58.0,14.8,25.17,SSW,202,4.0,-999.0,18,-99.99,,,-99.99,dwt +perl,2013-01-17 06:59:00,
2013-01-16 23:04:00,58.1,14.8,25.17,SSW,196,9.0,-999.0,18,-99.99,,,-99.99,dwt +perl,2013-01-17 07:04:00,
2013-01-16 23:09:00,58.2,14.9,25.17,SW,214,9.0,-999.0,18,-99.99,,,-99.99,dwt +perl,2013-01-17 07:09:00,
2013-01-16 23:14:00,58.1,14.8,25.17,SSW,200,6.0,-999.0,18,-99.99,,,-99.99,dwt +perl,2013-01-17 07:14:00,
2013-01-16 23:19:00,58.0,14.8,25.17,SSW,201,7.0,-999.0,18,-99.99,,,-99.99,dwt +perl,2013-01-17 07:19:00,
2013-01-16 23:24:00,57.8,14.6,25.17,SSW,209,9.0,-999.0,18,-99.99,,,-99.99,dwt +perl,2013-01-17 07:24:00,
2013-01-16 23:29:00,57.7,14.5,25.17,SSW,204,7.0,-999.0,18,-99.99,,,-99.99,dwt +perl,2013-01-17 07:29:00,
2013-01-16 23:34:00,57.5,14.3,25.17,SSW,210,4.0,-999.0,18,-99.99,,,-99.99,dwt +perl,2013-01-17 07:34:00,
2013-01-16 23:39:00,57.3,14.2,25.17,SSW,213,8.0,-999.0,18,-99.99,,,-99.99,dwt +perl,2013-01-17 07:39:00,
2013-01-16 23:44:00,57.3,14.2,25.17,SSW,213,9.0,-999.0,18,-99.99,,,-99.99,dwt +perl,2013-01-17 07:44:00,
2013-01-16 23:49:00,57.2,14.1,25.17,SSW,208,7.0,-999.0,18,-99.99,,,-99.99,dwt +perl,2013-01-17 07:49:00,
2013-01-16 23:54:00,57.1,14.0,25.17,SW,215,4.0,-999.0,18,-99.99,,,-99.99,dwt +perl,2013-01-17 07:54:00,
2013-01-16 23:59:00,57.1,14.0,25.17,SSW,210,4.0,-999.0,18,-99.99,,,-99.99,dwt +perl,2013-01-17 07:59:00,